Location: F M Corners
(41.2198°N, 80.4709°W)
Time: 09:39:56
(UTC+00:00)

USA 308 - Pass Details

Date: 29 October 2020
Orbit: 571 x 578 km, 54.0° (Epoch: 23 November)

Event Time Altitude Azimuth Distance (km) Brightness Sun altitude
Rises 23:31:50 0° 313° (NW) 2,786 7.1 -14.0°
Reaches altitude 10° 23:34:12 10° 321° (NW) 1,884 6.0 -14.4°
Maximum altitude 23:38:16 40° 32° (NNE) 850 3.5 -15.2°
Enters shadow 23:39:53 28° 79° (E) 1,083 3.7 -15.5°
